QPF
0.03 0.02 0.01 0.02 0.02 0.01 0.02 0.02 0.02 0.01 0.00 0.00 0.00 0.01 0.00 0.00 0.00 0.00 0.00 0.00 0.00 0.01 0.01 0.01 0.01 0.01 0.01 0.01 0.01 0.01 0.01 0.01 0.01 0.01 0.00 0.00 0.00 0.00
0.03 0.02 0.02 0.02 0.02 0.02 0.02 0.02 0.02 0.02 0.01 0.01 0.01 0.01 0.01 0.00 0.00 0.00 0.00 0.00 0.00 0.00 0.00 0.01 0.01 0.02 0.02 0.01 0.01 0.01 0.01 0.01 0.01 0.01 0.00 0.00 0.00 0.00
0.04 0.03 0.03 0.03 0.02 0.01 0.02 0.02 0.03 0.03 0.02 0.01 0.01 0.01 0.01 0.00 0.00 0.00 0.00 0.01 0.00 0.00 0.00 0.00 0.01 0.01 0.01 0.01 0.01 0.02 0.01 0.01 0.01 0.01 0.01 0.01 0.00 0.00
0.07 0.08 0.05 0.05 0.03 0.02 0.02 0.02 0.03 0.03 0.02 0.02 0.01 0.01 0.01 0.01 0.01 0.01 0.01 0.01 0.01 0.00 0.00 0.01 0.01 0.01 0.01 0.01 0.02 0.02 0.02 0.01 0.01 0.01 0.01 0.01 0.00 0.00
0.08 0.09 0.07 0.06 0.05 0.05 0.04 0.03 0.03 0.03 0.03 0.02 0.01 0.01 0.01 0.01 0.01 0.01 0.01 0.01 0.01 0.01 0.01 0.00 0.00 0.00 0.01 0.01 0.02 0.02 0.01 0.01 0.01 0.01 0.01 0.01 0.01 0.00
0.07 0.06 0.05 0.05 0.05 0.05 0.05 0.03 0.03 0.02 0.02 0.02 0.02 0.02 0.01 0.01 0.01 0.01 0.01 0.01 0.01 0.01 0.01 0.01 0.01 0.01 0.01 0.01 0.02 0.02 0.02 0.02 0.02 0.02 0.01 0.01 0.01 0.01
0.06 0.06 0.06 0.06 0.06 0.06 0.04 0.02 0.02 0.03 0.03 0.03 0.03 0.03 0.02 0.02 0.02 0.02 0.01 0.02 0.02 0.02 0.02 0.01 0.01 0.01 0.01 0.01 0.02 0.02 0.02 0.03 0.03 0.04 0.04 0.04 0.04 0.04
0.06 0.05 0.06 0.07 0.06 0.07 0.05 0.05 0.05 0.05 0.05 0.05 0.05 0.04 0.03 0.03 0.03 0.03 0.02 0.02 0.02 0.02 0.03 0.02 0.02 0.02 0.02 0.03 0.04 0.05 0.05 0.06 0.06 0.06 0.07 0.08 0.08 0.08
0.05 0.05 0.05 0.06 0.07 0.07 0.07 0.09 0.10 0.08 0.07 0.06 0.05 0.04 0.03 0.03 0.03 0.02 0.02 0.02 0.02 0.02 0.01 0.01 0.02 0.02 0.02 0.02 0.03 0.04 0.05 0.05 0.05 0.05 0.05 0.05 0.05 0.05
0.05 0.05 0.04 0.04 0.05 0.07 0.08 0.08 0.07 0.06 0.06 0.05 0.04 0.03 0.02 0.02 0.02 0.02 0.02 0.02 0.02 0.02 0.02 0.03 0.03 0.02 0.02 0.02 0.02 0.02 0.02 0.02 0.02 0.02 0.02 0.02 0.02 0.02
0.05 0.06 0.06 0.05 0.07 0.09 0.09 0.07 0.06 0.05 0.06 0.06 0.05 0.03 0.03 0.03 0.03 0.02 0.03 0.03 0.02 0.02 0.03 0.03 0.03 0.03 0.03 0.02 0.02 0.02 0.01 0.01 0.01 0.01 0.01 0.01 0.01 0.01
0.05 0.06 0.06 0.05 0.06 0.08 0.07 0.07 0.07 0.05 0.06 0.05 0.04 0.03 0.03 0.03 0.03 0.03 0.02 0.02 0.02 0.01 0.02 0.02 0.02 0.03 0.03 0.02 0.01 0.01 0.01 0.01 0.01 0.01 0.01 0.01 0.01 0.00
0.03 0.03 0.05 0.06 0.08 0.09 0.07 0.06 0.07 0.07 0.06 0.05 0.04 0.03 0.02 0.02 0.02 0.02 0.03 0.04 0.04 0.03 0.03 0.03 0.03 0.03 0.03 0.02 0.01 0.01 0.01 0.01 0.01 0.02 0.02 0.02 0.02 0.01
0.03 0.03 0.04 0.06 0.07 0.07 0.07 0.07 0.09 0.09 0.08 0.08 0.07 0.06 0.05 0.04 0.05 0.06 0.06 0.06 0.05 0.05 0.05 0.05 0.04 0.04 0.04 0.03 0.03 0.02 0.02 0.02 0.03 0.03 0.03 0.03 0.03 0.02
0.02 0.04 0.04 0.05 0.06 0.09 0.12 0.14 0.15 0.15 0.15 0.13 0.10 0.08 0.07 0.07 0.06 0.06 0.06 0.05 0.05 0.05 0.06 0.05 0.05 0.05 0.05 0.05 0.05 0.05 0.05 0.05 0.05 0.05 0.04 0.04 0.03 0.03
0.05 0.06 0.06 0.06 0.07 0.09 0.10 0.10 0.10 0.09 0.08 0.07 0.05 0.05 0.04 0.04 0.04 0.03 0.03 0.03 0.03 0.03 0.03 0.03 0.03 0.04 0.05 0.05 0.06 0.06 0.06 0.06 0.06 0.06 0.05 0.04 0.04 0.03
0.08 0.06 0.05 0.05 0.06 0.06 0.06 0.05 0.05 0.05 0.05 0.05 0.04 0.04 0.03 0.03 0.02 0.02 0.02 0.02 0.02 0.02 0.02 0.03 0.04 0.04 0.04 0.04 0.04 0.04 0.04 0.04 0.04 0.05 0.06 0.06 0.05 0.04
0.04 0.03 0.04 0.05 0.06 0.06 0.05 0.05 0.05 0.04 0.03 0.03 0.03 0.03 0.03 0.03 0.03 0.03 0.04 0.05 0.05 0.05 0.04 0.04 0.03 0.03 0.03 0.04 0.04 0.04 0.04 0.05 0.05 0.05 0.06 0.06 0.05 0.04
0.05 0.04 0.04 0.04 0.05 0.05 0.04 0.04 0.03 0.02 0.02 0.02 0.02 0.03 0.04 0.04 0.04 0.05 0.05 0.05 0.05 0.05 0.05 0.04 0.04 0.04 0.05 0.05 0.04 0.04 0.04 0.05 0.05 0.06 0.06 0.05 0.04 0.03
0.04 0.05 0.05 0.04 0.04 0.04 0.04 0.03 0.02 0.02 0.01 0.02 0.02 0.02 0.02 0.02 0.02 0.03 0.03 0.04 0.04 0.04 0.04 0.03 0.03 0.03 0.03 0.03 0.04 0.04 0.04 0.04 0.04 0.05 0.05 0.04 0.04 0.05
0.04 0.04 0.04 0.03 0.03 0.03 0.03 0.03 0.03 0.03 0.02 0.02 0.01 0.01 0.02 0.02 0.03 0.03 0.03 0.03 0.03 0.03 0.03 0.02 0.02 0.02 0.02 0.02 0.02 0.03 0.03 0.04 0.04 0.03 0.03 0.04 0.04 0.05
0.03 0.03 0.03 0.03 0.03 0.03 0.03 0.03 0.03 0.03 0.02 0.01 0.01 0.01 0.01 0.01 0.01 0.01 0.01 0.01 0.01 0.01 0.01 0.01 0.01 0.01 0.01 0.01 0.02 0.02 0.02 0.02 0.02 0.03 0.03 0.04 0.04 0.04
0.01 0.01 0.01 0.01 0.01 0.01 0.02 0.01 0.01 0.01 0.00 0.00 0.00 0.00 0.00 0.00 0.00 0.00 0.00 0.00 0.00 0.01 0.01 0.01 0.01 0.01 0.01 0.01 0.01 0.01 0.01 0.01 0.01 0.01 0.02 0.02 0.03 0.02
MSLP
1017.19 1017.63 1018.07 1018.46 1018.77 1018.97 1019.03 1018.98 1018.82 1018.58 1018.31 1018.03 1017.79 1017.60 1017.47 1017.42 1017.42 1017.47 1017.57 1017.70 1017.84 1018.01 1018.19 1018.37 1018.55 1018.73 1018.89 1019.03 1019.14 1019.22 1019.29 1019.33 1019.36 1019.38 1019.40 1019.41 1019.43 1019.45
1016.75 1017.19 1017.63 1018.03 1018.37 1018.60 1018.71 1018.71 1018.60 1018.42 1018.20 1017.97 1017.75 1017.57 1017.43 1017.34 1017.29 1017.28 1017.30 1017.35 1017.42 1017.52 1017.63 1017.77 1017.92 1018.07 1018.22 1018.37 1018.49 1018.59 1018.66 1018.70 1018.72 1018.72 1018.71 1018.69 1018.68 1018.66
1016.28 1016.72 1017.15 1017.56 1017.91 1018.17 1018.34 1018.40 1018.37 1018.27 1018.12 1017.94 1017.76 1017.59 1017.45 1017.32 1017.22 1017.13 1017.07 1017.02 1017.00 1017.01 1017.04 1017.12 1017.22 1017.34 1017.47 1017.60 1017.72 1017.82 1017.88 1017.91 1017.91 1017.89 1017.86 1017.81 1017.77 1017.72
1015.81 1016.22 1016.63 1017.04 1017.40 1017.70 1017.92 1018.06 1018.11 1018.10 1018.03 1017.92 1017.79 1017.65 1017.49 1017.33 1017.17 1017.01 1016.85 1016.71 1016.59 1016.51 1016.46 1016.46 1016.50 1016.57 1016.67 1016.77 1016.87 1016.94 1016.99 1017.00 1016.98 1016.94 1016.88 1016.82 1016.75 1016.70
1015.32 1015.70 1016.10 1016.49 1016.86 1017.19 1017.47 1017.67 1017.81 1017.89 1017.90 1017.87 1017.79 1017.67 1017.52 1017.34 1017.13 1016.90 1016.66 1016.43 1016.22 1016.05 1015.92 1015.84 1015.81 1015.83 1015.87 1015.93 1015.99 1016.04 1016.06 1016.05 1016.01 1015.94 1015.87 1015.79 1015.71 1015.66
1014.85 1015.20 1015.58 1015.96 1016.33 1016.68 1016.99 1017.26 1017.47 1017.62 1017.71 1017.74 1017.72 1017.63 1017.49 1017.30 1017.06 1016.79 1016.49 1016.20 1015.92 1015.67 1015.47 1015.32 1015.23 1015.18 1015.17 1015.18 1015.19 1015.20 1015.18 1015.14 1015.08 1015.01 1014.92 1014.84 1014.77 1014.71
1014.43 1014.76 1015.11 1015.47 1015.84 1016.20 1016.54 1016.84 1017.10 1017.31 1017.46 1017.55 1017.57 1017.52 1017.40 1017.21 1016.97 1016.68 1016.36 1016.03 1015.71 1015.41 1015.16 1014.96 1014.81 1014.71 1014.64 1014.59 1014.56 1014.52 1014.47 1014.40 1014.33 1014.24 1014.16 1014.07 1014.00 1013.95
1014.11 1014.42 1014.75 1015.09 1015.45 1015.80 1016.15 1016.47 1016.76 1017.00 1017.19 1017.32 1017.37 1017.35 1017.26 1017.09 1016.87 1016.59 1016.28 1015.96 1015.63 1015.32 1015.04 1014.81 1014.62 1014.47 1014.35 1014.26 1014.17 1014.09 1014.01 1013.92 1013.83 1013.74 1013.65 1013.57 1013.49 1013.43
1013.93 1014.24 1014.55 1014.88 1015.22 1015.57 1015.90 1016.22 1016.51 1016.76 1016.96 1017.10 1017.18 1017.20 1017.14 1017.01 1016.82 1016.58 1016.31 1016.01 1015.70 1015.41 1015.14 1014.89 1014.68 1014.50 1014.34 1014.21 1014.09 1013.97 1013.86 1013.75 1013.64 1013.54 1013.44 1013.34 1013.25 1013.16
1013.96 1014.26 1014.57 1014.89 1015.22 1015.54 1015.86 1016.16 1016.43 1016.67 1016.86 1017.01 1017.10 1017.14 1017.11 1017.02 1016.89 1016.70 1016.47 1016.23 1015.97 1015.71 1015.45 1015.21 1014.99 1014.80 1014.62 1014.45 1014.30 1014.15 1014.01 1013.88 1013.74 1013.61 1013.49 1013.36 1013.22 1013.08
1014.21 1014.53 1014.84 1015.16 1015.47 1015.78 1016.07 1016.34 1016.58 1016.79 1016.97 1017.11 1017.20 1017.25 1017.25 1017.21 1017.11 1016.98 1016.82 1016.62 1016.41 1016.19 1015.97 1015.74 1015.53 1015.32 1015.12 1014.93 1014.75 1014.57 1014.40 1014.23 1014.06 1013.89 1013.71 1013.53 1013.33 1013.10
1014.69 1015.03 1015.37 1015.69 1016.00 1016.29 1016.55 1016.79 1017.00 1017.18 1017.33 1017.45 1017.54 1017.59 1017.61 1017.59 1017.54 1017.46 1017.34 1017.19 1017.02 1016.83 1016.62 1016.41 1016.19 1015.97 1015.75 1015.54 1015.33 1015.11 1014.90 1014.68 1014.46 1014.23 1013.99 1013.72 1013.43 1013.10
1015.40 1015.77 1016.13 1016.47 1016.78 1017.06 1017.30 1017.51 1017.69 1017.84 1017.96 1018.05 1018.12 1018.17 1018.19 1018.19 1018.16 1018.10 1018.00 1017.88 1017.72 1017.54 1017.34 1017.12 1016.90 1016.66 1016.42 1016.17 1015.92 1015.66 1015.40 1015.13 1014.84 1014.53 1014.19 1013.83 1013.43 1013.00
1016.31 1016.71 1017.09 1017.44 1017.76 1018.03 1018.26 1018.45 1018.59 1018.71 1018.80 1018.87 1018.91 1018.95 1018.96 1018.95 1018.92 1018.85 1018.76 1018.63 1018.46 1018.27 1018.05 1017.81 1017.55 1017.28 1017.01 1016.72 1016.42 1016.11 1015.79 1015.45 1015.08 1014.68 1014.25 1013.78 1013.27 1012.73
1017.38 1017.80 1018.20 1018.56 1018.88 1019.15 1019.36 1019.53 1019.65 1019.73 1019.79 1019.83 1019.85 1019.86 1019.84 1019.81 1019.75 1019.66 1019.53 1019.36 1019.16 1018.93 1018.67 1018.38 1018.08 1017.77 1017.44 1017.11 1016.76 1016.39 1016.01 1015.59 1015.14 1014.65 1014.12 1013.55 1012.95 1012.31
1018.58 1019.01 1019.41 1019.77 1020.08 1020.34 1020.53 1020.67 1020.77 1020.83 1020.85 1020.86 1020.84 1020.81 1020.76 1020.68 1020.57 1020.42 1020.24 1020.02 1019.76 1019.47 1019.15 1018.80 1018.44 1018.08 1017.70 1017.31 1016.91 1016.48 1016.03 1015.55 1015.02 1014.46 1013.84 1013.19 1012.51 1011.80
1019.86 1020.28 1020.67 1021.01 1021.30 1021.53 1021.70 1021.82 1021.88 1021.90 1021.90 1021.86 1021.80 1021.73 1021.62 1021.49 1021.32 1021.11 1020.85 1020.56 1020.23 1019.86 1019.47 1019.06 1018.64 1018.22 1017.78 1017.34 1016.89 1016.41 1015.91 1015.37 1014.78 1014.16 1013.49 1012.78 1012.05 1011.30
1021.20 1021.58 1021.93 1022.24 1022.50 1022.69 1022.82 1022.90 1022.92 1022.91 1022.86 1022.78 1022.68 1022.55 1022.39 1022.20 1021.96 1021.68 1021.35 1020.98 1020.57 1020.13 1019.66 1019.19 1018.71 1018.23 1017.75 1017.27 1016.77 1016.26 1015.71 1015.13 1014.51 1013.85 1013.15 1012.42 1011.67 1010.91
1022.53 1022.87 1023.17 1023.43 1023.64 1023.78 1023.86 1023.89 1023.87 1023.82 1023.72 1023.60 1023.46 1023.28 1023.06 1022.80 1022.49 1022.14 1021.74 1021.30 1020.82 1020.31 1019.79 1019.26 1018.73 1018.21 1017.69 1017.16 1016.64 1016.09 1015.53 1014.92 1014.29 1013.62 1012.91 1012.19 1011.45 1010.71
1023.83 1024.11 1024.35 1024.55 1024.69 1024.78 1024.80 1024.78 1024.72 1024.62 1024.49 1024.32 1024.13 1023.90 1023.63 1023.31 1022.95 1022.53 1022.07 1021.57 1021.03 1020.48 1019.91 1019.34 1018.77 1018.21 1017.66 1017.11 1016.55 1015.99 1015.41 1014.80 1014.17 1013.51 1012.82 1012.12 1011.41 1010.71
1025.03 1025.25 1025.43 1025.56 1025.64 1025.67 1025.65 1025.58 1025.47 1025.33 1025.17 1024.96 1024.72 1024.45 1024.13 1023.77 1023.35 1022.89 1022.38 1021.84 1021.26 1020.67 1020.07 1019.47 1018.87 1018.28 1017.71 1017.14 1016.56 1015.98 1015.40 1014.79 1014.16 1013.52 1012.86 1012.20 1011.54 1010.89
1026.09 1026.25 1026.37 1026.44 1026.47 1026.45 1026.38 1026.28 1026.14 1025.97 1025.76 1025.53 1025.26 1024.95 1024.59 1024.19 1023.74 1023.24 1022.71 1022.13 1021.53 1020.91 1020.29 1019.67 1019.05 1018.45 1017.85 1017.26 1016.66 1016.07 1015.47 1014.85 1014.24 1013.61 1012.99 1012.36 1011.75 1011.16
1026.96 1027.07 1027.14 1027.17 1027.15 1027.09 1026.99 1026.86 1026.70 1026.51 1026.29 1026.03 1025.73 1025.40 1025.02 1024.59 1024.12 1023.60 1023.04 1022.45 1021.84 1021.21 1020.58 1019.95 1019.31 1018.69 1018.06 1017.44 1016.82 1016.20 1015.58 1014.96 1014.34 1013.72 1013.12 1012.53 1011.97 1011.43
Thickness
5728 5727 5725 5725 5724 5723 5721 5719 5714 5709 5712 5718 5721 5725 5724 5723 5723 5722 5721 5720 5718 5717 5715 5714 5712 5710 5709 5707 5705 5703 5702 5700 5698 5696 5695 5693 5691 5690
5727 5726 5725 5724 5723 5722 5721 5720 5718 5715 5712 5718 5720 5723 5723 5723 5722 5721 5720 5719 5718 5717 5715 5714 5712 5710 5709 5707 5705 5703 5701 5699 5697 5695 5694 5692 5690 5688
5726 5725 5724 5724 5722 5721 5720 5719 5717 5715 5713 5717 5719 5720 5721 5721 5720 5720 5719 5718 5717 5716 5715 5713 5712 5710 5708 5706 5705 5703 5701 5699 5697 5695 5692 5690 5688 5686
5726 5724 5723 5723 5721 5720 5719 5718 5716 5715 5714 5713 5715 5717 5717 5717 5717 5717 5717 5717 5716 5715 5714 5712 5711 5710 5708 5706 5704 5701 5700 5698 5696 5694 5691 5689 5687 5684
5726 5724 5723 5721 5720 5719 5718 5716 5715 5715 5713 5711 5712 5713 5713 5714 5713 5714 5714 5714 5714 5713 5712 5711 5709 5708 5706 5704 5702 5700 5698 5696 5694 5692 5690 5687 5685 5682
5725 5723 5722 5721 5720 5718 5716 5715 5713 5711 5710 5708 5708 5708 5708 5709 5709 5709 5709 5710 5710 5710 5709 5708 5707 5705 5704 5702 5700 5698 5696 5694 5692 5690 5687 5685 5682 5679
5723 5721 5721 5720 5719 5718 5716 5714 5711 5709 5707 5705 5704 5703 5703 5703 5704 5705 5704 5705 5705 5705 5704 5704 5702 5701 5699 5698 5696 5695 5693 5691 5688 5687 5684 5681 5678 5676
5720 5719 5718 5717 5716 5715 5714 5713 5711 5707 5705 5702 5701 5699 5700 5700 5701 5700 5699 5698 5697 5699 5697 5698 5696 5695 5694 5693 5692 5690 5688 5686 5683 5681 5679 5677 5674 5671
5717 5716 5715 5715 5714 5712 5710 5708 5706 5705 5704 5702 5699 5697 5696 5697 5696 5695 5694 5693 5692 5693 5690 5691 5690 5689 5688 5686 5685 5683 5681 5679 5677 5675 5673 5671 5668 5665
5714 5712 5711 5711 5710 5708 5705 5703 5702 5701 5699 5698 5696 5695 5694 5694 5692 5692 5690 5688 5687 5685 5683 5682 5682 5681 5681 5679 5677 5675 5673 5671 5669 5667 5664 5662 5660 5658
5709 5708 5707 5705 5705 5702 5700 5698 5696 5695 5694 5692 5691 5690 5689 5687 5686 5685 5682 5680 5679 5678 5675 5673 5674 5672 5672 5670 5668 5666 5664 5662 5659 5657 5655 5653 5651 5648
5703 5702 5700 5700 5699 5697 5695 5692 5690 5689 5688 5686 5684 5683 5681 5680 5679 5677 5675 5673 5671 5669 5667 5664 5664 5661 5661 5661 5658 5655 5653 5651 5648 5646 5644 5641 5639 5636
5697 5695 5693 5693 5692 5690 5688 5687 5685 5683 5681 5678 5676 5675 5673 5672 5671 5669 5667 5664 5661 5659 5657 5654 5653 5650 5647 5648 5647 5644 5640 5638 5636 5633 5631 5629 5626 5624
5691 5689 5687 5685 5684 5682 5681 5679 5677 5675 5673 5670 5668 5666 5664 5662 5661 5659 5657 5654 5652 5649 5646 5644 5641 5638 5635 5634 5633 5631 5628 5624 5622 5619 5617 5615 5613 5610
5683 5681 5679 5678 5676 5674 5672 5670 5668 5666 5664 5661 5658 5656 5654 5652 5650 5649 5646 5644 5641 5638 5635 5631 5628 5625 5622 5619 5618 5616 5613 5611 5607 5605 5603 5601 5599 5597
5675 5673 5671 5668 5666 5664 5662 5660 5658 5655 5653 5651 5648 5645 5643 5641 5639 5637 5634 5632 5629 5626 5622 5618 5615 5611 5609 5606 5603 5601 5598 5596 5593 5590 5588 5587 5585 5583
5667 5664 5661 5658 5655 5652 5649 5647 5644 5642 5640 5638 5636 5633 5631 5628 5626 5623 5620 5617 5614 5611 5608 5605 5601 5598 5595 5592 5590 5588 5585 5582 5579 5575 5573 5573 5571 5569
5658 5653 5649 5645 5642 5639 5636 5633 5630 5628 5626 5624 5622 5619 5616 5614 5611 5608 5605 5602 5599 5595 5592 5589 5586 5585 5582 5579 5574 5572 5570 5566 5563 5561 5559 5558 5558 5555
5645 5640 5635 5631 5628 5625 5622 5619 5616 5613 5611 5609 5607 5604 5601 5599 5596 5593 5590 5587 5584 5580 5577 5574 5571 5569 5567 5565 5562 5556 5553 5552 5549 5547 5545 5543 5542 5541
5630 5626 5621 5618 5615 5612 5609 5605 5602 5600 5597 5594 5592 5589 5587 5584 5581 5578 5575 5571 5568 5566 5563 5560 5556 5552 5549 5548 5546 5542 5538 5536 5534 5533 5532 5530 5528 5527
5615 5611 5608 5605 5601 5598 5595 5591 5588 5585 5582 5579 5577 5574 5571 5569 5566 5563 5560 5555 5553 5551 5548 5545 5541 5537 5534 5533 5531 5529 5526 5521 5519 5517 5517 5517 5518 5516
5601 5597 5594 5591 5588 5584 5581 5578 5575 5571 5568 5565 5562 5559 5556 5554 5551 5548 5545 5542 5539 5536 5533 5530 5527 5524 5522 5520 5517 5515 5513 5510 5507 5505 5503 5501 5500 5501
5587 5584 5580 5577 5574 5570 5567 5564 5561 5557 5553 5550 5548 5545 5542 5539 5536 5534 5531 5528 5525 5523 5520 5518 5515 5512 5509 5506 5504 5502 5500 5498 5496 5495 5493 5489 5487 5485